Weather in Thompson

Canada     55°44′40″N   97°51′07″W
temp.,
°C
wind,
m/s
gust,
m/s
humid.,
%
clouds,
%
prec.,
mm/h
press.,
hPa
HPBL,
m
18 september, sat
sat1801:00+8s3979100 0.0 1013291
04:00+7sse2791100 0.0 1012210
07:00+6se2897100 0.0 1011207
10:00+12se41069100 0.0 1007379
13:00+16sse61041100 0.0 10031116
16:00+18sse5939100 0.0 10011325
19:00+16se3847100 0.0 998215
22:00+13e386095 0.0 997170
19 september, sun
sun1901:00+11e3107364 0.0 994202
04:00+11se4148489 0.0 991285
07:00+13s2583100 0.0 989119
10:00+18s41071100 0.0 987515
13:00+20wsw4659100 0.0 986881
16:00+19wsw71048100 0.0 9881284
19:00+13w7136685 0.0 9931387
22:00+12wsw6136983 0.0 9961364
20 september, mon
mon2001:00+10wsw6137228 0.0 9981168
04:00+8wsw51270100 0.0 9991283
07:00+8w61176100 0.1 10011298
10:00+7wnw6115987 0.1 10041318
13:00+9wnw7114652 0.1 10061502
16:00+10wnw7104672 0.0 10091712
19:00+6nw61155100 0.0 10121420
22:00+6wnw595593 0.0 10151448
21 september, tue
tue2101:00+5wnw485962 0.0 10161000
04:00+3wnw3971100 0.0 1017320
07:00+2wnw2874100 0.0 1019323
10:00+5nw485351 0.0 1020989
13:00+9nw46355 0.0 10211666
16:00+11nw46305 0.0 10201875
19:00+7nnw11445 0.0 102110
22:00+3e11554 0.0 102310
22 september, wed
wed2201:00+2sse22600 0.0 102316
04:00+2s246782 0.0 102370
07:00+3sse2771100 0.0 1022160
10:00+8sse4863100 0.0 1020339
13:00+13s5952100 0.0 1017921
16:00+17s594585 0.0 10141323
19:00+14s51250100 0.0 1012931
22:00+13sse41351100 0.0 1011616